Wind_Speed
13 14 15 17 18 19 20 20 21 22 24 24 23 23 23 23 23 23 23 22 22 22 22 22 22 22 23 23 22 22 21 21 21 21 21 21 22 23 23 24 25 25 25 25
12 13 15 17 18 19 20 20 20 22 23 23 23 23 24 24 22 22 22 22 21 21 21 22 23 24 24 23 23 21 22 21 21 21 22 23 23 24 24 24 24 24 25 25
12 12 13 15 16 17 18 19 20 21 22 23 23 23 22 21 20 21 21 21 20 19 20 22 24 24 24 24 24 22 22 22 22 22 22 23 24 24 24 25 26 26 26 25
11 12 13 14 15 15 16 17 18 19 20 21 21 22 21 21 20 20 19 18 18 20 21 22 24 24 24 24 24 23 23 24 24 23 24 24 24 25 26 26 27 27 26 26
11 12 12 13 13 14 15 15 16 17 18 19 20 20 19 19 19 18 17 17 18 18 19 20 22 23 24 24 23 23 24 25 25 25 25 25 26 26 26 27 27 28 27 27
10 11 12 13 14 15 15 15 16 16 17 18 18 20 19 18 17 17 17 17 17 18 19 20 21 23 24 24 25 26 26 26 26 25 25 26 27 27 27 27 28 28 27 27
10 11 12 14 14 15 15 15 16 17 17 18 17 18 18 17 17 17 17 17 17 18 19 20 21 23 23 25 26 26 25 25 25 25 26 27 27 28 28 28 28 28 27 26
11 12 13 13 14 15 16 16 17 18 18 18 18 19 18 17 18 18 18 18 18 18 19 20 21 22 22 24 25 24 25 26 26 26 26 27 26 27 27 27 27 27 27 26
11 12 13 13 14 15 16 17 18 18 18 19 19 18 18 18 18 18 18 18 19 19 19 19 19 20 21 22 24 24 25 26 25 26 26 26 27 27 27 27 27 27 27 26
10 11 11 12 13 14 15 15 17 18 19 19 19 18 18 17 17 17 18 18 18 18 19 19 19 19 20 22 23 24 24 25 26 26 27 27 28 28 28 28 27 27 27 27
11 11 11 12 13 14 14 15 15 16 17 19 19 17 17 17 16 17 18 19 19 20 20 20 20 20 21 22 22 23 24 25 25 25 26 27 27 28 28 28 28 27 27 27
12 12 12 12 13 14 14 14 15 16 17 17 18 16 15 16 16 17 18 18 19 19 19 19 19 20 21 22 23 23 24 24 24 25 25 25 26 27 27 27 28 28 28 28
12 12 12 12 12 13 13 13 14 15 15 15 15 14 14 15 16 17 18 18 18 18 19 20 20 20 21 22 23 23 23 24 24 25 26 26 26 26 26 27 27 27 27 28
12 12 12 11 11 11 12 13 13 14 14 14 14 14 14 15 16 17 18 18 18 19 19 20 20 20 21 22 22 23 23 24 24 25 26 25 25 25 25 25 26 26 27 27
11 11 11 11 10 11 12 12 12 13 13 14 14 15 15 16 17 17 17 18 18 18 19 19 20 20 20 21 22 23 23 23 23 24 24 24 24 25 24 24 24 24 24 25
11 11 11 10 9 10 11 11 11 12 12 13 14 15 15 15 16 17 17 17 17 18 18 19 19 20 20 20 21 21 22 21 21 22 22 23 23 23 23 23 22 22 23 23
11 11 10 9 8 10 10 10 10 11 12 13 14 14 14 14 15 16 17 17 17 17 17 17 18 18 19 19 20 20 21 21 20 20 21 20 21 20 20 21 21 21 22 22
10 10 10 9 8 9 8 9 10 11 11 12 12 11 12 13 14 15 16 16 16 16 16 16 16 17 17 18 18 19 19 18 18 18 18 18 19 19 19 19 20 20 21 21
9 9 9 8 7 7 6 8 9 10 10 10 10 11 12 13 15 15 15 15 15 15 15 14 15 16 16 17 17 16 15 15 15 16 16 16 17 17 17 17 17 18 18 19
7 7 7 7 7 7 6 7 8 8 8 8 9 10 12 13 14 14 14 14 14 14 14 14 15 15 15 15 14 14 13 13 13 13 14 14 14 14 15 15 15 16 16 17
7 6 6 6 6 5 5 6 7 8 8 8 9 10 12 12 12 13 13 12 13 13 14 14 14 14 14 13 13 12 12 12 12 12 12 12 12 12 12 13 13 14 14 14
6 5 5 5 5 5 5 6 7 7 7 8 9 10 11 12 11 12 12 12 13 13 14 14 14 13 13 12 12 12 12 11 11 11 11 11 11 11 11 11 11 12 12 12
6 6 5 5 5 5 5 5 6 7 7 7 8 9 10 10 11 12 12 12 12 13 13 14 13 13 12 12 12 11 12 11 11 11 10 10 10 10 10 11 11 11 11 10
7 6 6 5 6 6 5 6 6 6 7 7 8 8 9 10 11 12 12 12 12 13 13 14 13 13 12 12 12 12 12 12 12 11 11 10 10 10 11 11 11 10 9 9
8 7 6 5 5 5 5 5 6 6 6 7 7 8 9 9 10 11 12 12 13 13 13 13 13 13 13 13 13 13 12 12 12 12 11 11 10 10 10 10 10 10 9 10
8 7 6 5 5 5 4 4 4 4 5 6 7 7 8 9 10 11 12 12 12 13 13 13 13 13 13 13 13 13 13 13 12 12 12 11 11 10 10 10 10 10 10 10
Wind_Direction
225 225 227 230 230 233 236 238 241 245 249 252 256 259 261 265 269 270 270 270 270 264 263 266 270 269 268 270 270 267 270 273 276 278 279 281 282 282 282 283 284 283 281 281
228 229 232 233 233 235 238 242 244 248 251 254 256 260 264 268 270 271 274 272 271 263 265 265 270 269 270 270 270 269 270 274 277 278 279 280 283 283 283 284 283 283 284 283
234 234 236 237 238 239 242 246 247 250 253 256 259 262 266 269 271 273 274 271 270 269 270 272 269 269 271 273 271 270 271 274 276 278 280 282 282 283 284 284 283 283 284 283
233 240 241 241 242 243 244 249 251 252 255 258 262 265 266 270 274 274 274 271 273 274 276 276 273 270 271 273 273 272 273 274 274 276 279 281 282 283 285 285 284 285 284 283
238 242 245 244 243 245 247 252 254 256 260 262 264 265 265 269 274 276 277 275 276 278 279 280 276 273 272 270 273 275 275 274 274 275 277 280 281 282 283 284 284 285 283 280
242 243 244 244 245 248 251 255 257 259 263 265 267 270 269 272 277 278 280 279 278 279 279 279 276 272 272 271 276 276 277 276 273 275 277 279 281 281 282 282 283 284 282 278
248 250 250 249 250 252 254 258 262 264 267 270 272 275 278 279 280 281 281 282 284 282 280 279 277 275 272 273 278 277 278 279 277 277 279 280 281 282 281 281 282 283 281 279
254 253 256 256 254 255 259 262 265 269 271 272 275 278 282 282 283 284 283 283 284 282 282 283 279 277 274 275 277 278 278 279 279 278 278 279 281 282 282 281 281 281 279 278
263 259 259 260 257 257 261 264 268 271 274 276 278 280 281 282 287 287 287 286 285 282 285 286 280 276 275 277 277 277 277 277 279 280 280 279 279 280 281 281 281 280 277 276
270 268 265 265 260 258 261 268 270 271 275 278 280 282 285 285 285 285 288 289 287 286 287 286 284 281 277 277 277 278 278 280 282 282 282 281 280 280 280 280 280 279 277 276
268 269 270 270 265 263 263 268 269 270 275 279 282 284 287 288 285 289 292 291 291 288 286 286 286 284 283 285 283 281 279 280 281 282 282 281 281 279 279 280 278 278 277 276
270 268 269 269 267 264 263 263 264 267 274 278 282 285 288 289 290 293 296 297 295 290 291 288 287 286 286 287 286 284 282 280 281 282 282 282 281 280 280 279 277 276 276 275
273 270 271 269 267 266 262 260 262 268 274 280 283 287 290 292 293 295 296 296 295 294 291 290 288 288 288 288 288 289 286 284 283 282 283 284 283 282 281 279 277 276 276 274
271 270 272 273 269 265 261 262 265 271 276 282 287 288 290 293 295 295 295 296 296 296 293 291 291 291 291 291 292 293 291 287 285 285 286 287 286 283 282 281 279 278 277 276
272 271 274 270 265 261 260 261 265 270 277 285 289 288 290 294 297 298 298 299 299 300 297 294 294 293 292 293 294 293 292 289 289 289 288 288 287 285 283 281 280 280 278 277
271 272 272 266 260 260 262 262 264 271 280 287 290 292 297 299 300 301 302 303 303 304 303 301 299 297 295 294 294 294 293 293 292 291 290 289 289 287 284 284 282 281 281 280
269 270 269 265 263 263 262 267 270 276 282 289 294 298 300 303 304 307 308 308 309 308 308 308 308 306 304 300 298 297 297 296 295 295 295 293 292 291 289 286 284 281 281 280
266 266 266 265 266 264 269 269 274 280 284 288 295 301 306 310 312 314 315 316 316 316 315 314 312 311 309 306 305 305 302 299 299 299 297 296 295 295 294 290 287 284 282 281
262 261 261 261 265 269 273 276 279 286 290 295 300 306 312 316 318 321 322 323 323 322 323 322 321 321 320 319 316 312 307 306 305 302 300 300 299 298 298 293 290 288 286 285
261 262 257 258 262 266 277 285 291 298 301 304 310 315 318 322 324 326 328 329 330 330 329 328 329 330 329 329 327 322 318 316 313 310 307 307 308 307 305 304 302 299 294 290
259 256 250 255 265 271 285 296 302 306 312 314 317 322 326 327 331 334 338 341 342 341 339 338 337 337 337 337 336 336 336 332 326 321 316 315 316 315 314 311 309 307 303 299
249 249 246 251 268 284 295 305 309 311 318 322 324 326 330 335 338 341 345 347 347 347 347 346 345 345 344 343 342 344 344 342 336 330 328 326 328 328 323 320 317 316 315 312
245 248 251 261 274 287 297 306 316 322 327 331 332 336 340 342 345 348 351 353 354 355 354 354 354 354 353 351 351 351 351 349 346 344 341 338 338 337 334 332 331 329 326 323
233 237 248 260 271 283 290 301 314 324 334 340 341 343 348 349 349 354 357 0 2 3 2 2 3 3 2 1 1 359 357 357 356 354 354 353 349 348 347 344 341 342 345 345
226 234 244 258 270 279 287 300 316 330 343 350 351 351 355 358 359 0 3 4 7 9 9 10 11 11 9 6 5 4 2 0 1 0 360 2 2 357 356 354 352 354 357 359
226 234 245 256 265 279 291 304 319 334 347 354 357 359 2 4 5 7 8 10 12 13 15 16 16 16 15 13 11 11 9 7 6 4 5 5 6 6 3 1 3 6 7 6
Height
5827 5830 5831 5832 5834 5836 5838 5839 5841 5842 5843 5844 5844 5845 5846 5846 5847 5847 5848 5848 5848 5848 5847 5847 5847 5847 5847 5846 5845 5845 5845 5844 5843 5842 5841 5841 5840 5839 5838 5837 5836 5834 5834 5832
5827 5828 5829 5830 5832 5834 5835 5837 5838 5839 5840 5841 5841 5842 5842 5843 5843 5843 5843 5843 5842 5842 5842 5842 5841 5841 5841 5841 5840 5839 5839 5838 5838 5837 5836 5836 5834 5833 5832 5831 5830 5828 5827 5826
5825 5827 5827 5828 5830 5831 5833 5835 5836 5836 5836 5837 5838 5839 5839 5839 5839 5839 5839 5838 5837 5837 5837 5837 5837 5836 5835 5835 5834 5834 5834 5833 5833 5832 5831 5830 5829 5828 5826 5825 5824 5822 5821 5819
5823 5825 5826 5827 5828 5829 5831 5832 5833 5833 5833 5834 5835 5835 5836 5835 5836 5835 5834 5834 5833 5833 5832 5832 5831 5830 5829 5830 5829 5829 5828 5828 5827 5826 5825 5824 5823 5821 5820 5819 5817 5816 5814 5812
5822 5823 5824 5825 5826 5827 5828 5829 5829 5830 5830 5831 5831 5831 5833 5832 5832 5832 5830 5829 5829 5828 5827 5826 5825 5824 5823 5823 5823 5823 5822 5822 5820 5819 5818 5818 5816 5815 5813 5812 5811 5809 5807 5806
5820 5821 5822 5823 5824 5825 5826 5826 5827 5827 5827 5828 5828 5828 5829 5828 5828 5828 5826 5825 5824 5823 5822 5821 5820 5819 5818 5817 5818 5818 5817 5816 5814 5813 5812 5811 5810 5808 5806 5805 5804 5803 5801 5800
5818 5819 5820 5821 5822 5823 5824 5824 5824 5824 5824 5825 5825 5824 5825 5824 5824 5823 5822 5821 5819 5818 5817 5815 5814 5814 5813 5812 5812 5811 5810 5809 5808 5807 5806 5805 5803 5802 5800 5799 5797 5796 5794 5793
5816 5817 5817 5818 5819 5820 5821 5822 5822 5822 5821 5821 5821 5820 5822 5821 5819 5818 5817 5816 5815 5814 5812 5810 5809 5808 5807 5807 5806 5805 5804 5803 5802 5801 5799 5798 5797 5795 5793 5791 5790 5788 5787 5786
5813 5814 5814 5815 5816 5817 5817 5817 5818 5818 5817 5817 5817 5817 5817 5816 5815 5814 5813 5811 5810 5809 5807 5806 5804 5803 5801 5800 5800 5799 5797 5796 5795 5794 5793 5791 5790 5788 5786 5784 5782 5781 5780 5779
5811 5812 5812 5812 5812 5813 5814 5814 5814 5814 5813 5813 5813 5813 5813 5812 5811 5809 5808 5807 5806 5805 5803 5801 5799 5797 5796 5795 5794 5792 5791 5790 5788 5787 5785 5784 5782 5780 5778 5777 5775 5774 5773 5772
5808 5809 5809 5809 5809 5809 5810 5811 5810 5810 5810 5809 5808 5811 5809 5807 5806 5805 5804 5803 5801 5800 5798 5796 5794 5792 5790 5789 5787 5785 5784 5782 5781 5779 5777 5776 5774 5772 5771 5769 5768 5766 5765 5764
5805 5806 5806 5806 5806 5806 5806 5807 5807 5807 5806 5806 5805 5808 5804 5803 5802 5801 5800 5798 5796 5795 5793 5791 5789 5787 5784 5783 5781 5779 5777 5775 5774 5772 5770 5768 5766 5765 5763 5761 5760 5758 5757 5756
5802 5802 5803 5803 5805 5804 5803 5803 5803 5804 5803 5802 5802 5804 5801 5800 5798 5797 5795 5794 5792 5790 5788 5785 5783 5781 5779 5777 5774 5772 5770 5768 5766 5764 5762 5760 5759 5757 5755 5753 5752 5750 5749 5749
5799 5799 5800 5801 5800 5800 5800 5800 5800 5800 5800 5799 5799 5799 5798 5796 5794 5793 5791 5789 5787 5785 5782 5780 5778 5775 5773 5771 5768 5766 5764 5761 5759 5757 5755 5753 5751 5749 5747 5746 5744 5743 5742 5741
5796 5796 5796 5797 5797 5797 5797 5798 5798 5798 5797 5796 5796 5795 5794 5792 5791 5789 5786 5784 5782 5779 5777 5774 5772 5770 5767 5765 5762 5760 5757 5755 5752 5750 5748 5745 5744 5742 5740 5739 5737 5736 5735 5734
5793 5794 5794 5794 5794 5795 5795 5795 5795 5795 5794 5793 5792 5792 5790 5788 5787 5784 5782 5780 5777 5774 5771 5769 5766 5763 5761 5758 5756 5753 5751 5748 5746 5743 5741 5739 5737 5735 5733 5732 5730 5729 5728 5727
5791 5791 5792 5792 5792 5792 5793 5793 5792 5792 5791 5790 5789 5789 5787 5785 5783 5781 5778 5775 5772 5770 5767 5764 5761 5758 5755 5752 5749 5747 5744 5742 5740 5737 5735 5733 5731 5729 5727 5726 5724 5723 5722 5721
5789 5789 5789 5790 5791 5790 5793 5790 5790 5789 5789 5788 5786 5785 5784 5782 5779 5777 5774 5771 5768 5765 5762 5759 5756 5753 5750 5747 5744 5741 5739 5736 5735 5732 5730 5728 5726 5724 5722 5720 5719 5718 5716 5715
5787 5787 5787 5788 5787 5788 5789 5788 5787 5787 5786 5785 5784 5782 5781 5779 5776 5773 5770 5767 5765 5761 5758 5755 5752 5749 5746 5742 5739 5737 5734 5732 5730 5728 5726 5724 5722 5720 5717 5716 5714 5713 5711 5710
5785 5785 5786 5786 5786 5786 5788 5786 5785 5785 5784 5783 5781 5780 5778 5776 5773 5771 5767 5764 5761 5758 5755 5752 5749 5745 5742 5739 5736 5733 5731 5729 5727 5725 5722 5720 5718 5716 5714 5712 5710 5708 5707 5705
5784 5784 5784 5784 5784 5785 5785 5784 5784 5784 5784 5781 5779 5777 5775 5773 5771 5768 5765 5761 5758 5756 5752 5749 5746 5743 5740 5737 5734 5731 5729 5726 5724 5722 5720 5717 5715 5713 5711 5709 5707 5705 5703 5701
5782 5783 5783 5783 5783 5786 5783 5783 5783 5782 5780 5778 5777 5775 5773 5771 5768 5766 5762 5759 5756 5754 5750 5747 5744 5741 5738 5735 5732 5730 5727 5725 5722 5720 5717 5715 5713 5711 5708 5706 5704 5702 5700 5698
5781 5782 5782 5783 5784 5783 5782 5781 5781 5780 5778 5777 5775 5773 5772 5769 5767 5764 5761 5758 5755 5752 5749 5746 5742 5739 5737 5734 5731 5729 5726 5723 5721 5718 5716 5713 5711 5709 5707 5705 5703 5700 5698 5696
5780 5780 5781 5781 5781 5781 5780 5780 5779 5779 5777 5776 5774 5772 5770 5768 5766 5763 5760 5757 5754 5751 5748 5745 5742 5739 5736 5734 5731 5728 5726 5723 5720 5718 5715 5712 5710 5708 5706 5704 5701 5699 5697 5695
5778 5779 5779 5779 5779 5779 5779 5779 5778 5777 5776 5775 5773 5771 5770 5767 5765 5762 5759 5756 5753 5750 5748 5745 5742 5739 5736 5733 5731 5728 5726 5723 5720 5717 5715 5712 5710 5708 5706 5703 5701 5699 5697 5695
5776 5777 5778 5778 5778 5778 5778 5778 5777 5776 5775 5774 5773 5771 5769 5767 5765 5762 5759 5756 5754 5751 5748 5745 5742 5739 5736 5734 5731 5728 5726 5723 5720 5718 5715 5713 5710 5708 5706 5703 5701 5699 5697 5696